When you browse on this site, cookies collect data to enhance your experience and personalize the content and advertising you see.
Visit our Privacy Policy to learn more. By continuing to use the site, you agree to this use of cookies and data.
  • In Hungary
  • List of Countries
  • For 7 days
  • Water Temperature
  • Satellite Maps
  • Weather Map
  • News
  • Weather Widgets
  • user-avatar
    Login

    Hourly Weather Martos

    Today, 23 January, Wednesday

    Time Temperature Precipitation Wind Pressure Humidity
    00:00 +4°C° 1.1 mm 4 mps 699 mmHg 93%
    01:00 +4°C° 0.4 mm 4 mps 699 mmHg 94%
    02:00 +4°C° 0.4 mm 4 mps 699 mmHg 95%
    03:00 +4°C° 0.4 mm 4 mps 698 mmHg 95%
    04:00 +4°C° 0.1 mm 3 mps 698 mmHg 94%
    05:00 +4°C° 0.1 mm 3 mps 698 mmHg 94%
    06:00 +4°C° 0.1 mm 3 mps 698 mmHg 93%
    07:00 +4°C° 0 mm 3 mps 698 mmHg 92%
    08:00 +4°C° 0 mm 3 mps 698 mmHg 91%
    09:00 +4°C° 0 mm 3 mps 699 mmHg 89%
    10:00 +4°C° 0.1 mm 3 mps 698 mmHg 88%
    11:00 +5°C° 0.1 mm 3 mps 698 mmHg 88%
    12:00 +5°C° 0.1 mm 3 mps 698 mmHg 87%
    13:00 +7°C° 0.1 mm 3 mps 697 mmHg 85%
    14:00 +8°C° 0.1 mm 3 mps 697 mmHg 84%
    15:00 +8°C° 0.1 mm 3 mps 697 mmHg 83%
    16:00 +8°C° 0.2 mm 3 mps 697 mmHg 85%
    17:00 +8°C° 0.2 mm 3 mps 697 mmHg 86%
    18:00 +8°C° 0.2 mm 3 mps 697 mmHg 88%
    19:00 +7°C° 0 mm 3 mps 697 mmHg 89%
    20:00 +7°C° 0 mm 2 mps 697 mmHg 90%
    21:00 +6°C° 0 mm 2 mps 697 mmHg 92%
    22:00 +6°C° 0 mm 2 mps 698 mmHg 92%
    23:00 +6°C° 0 mm 2 mps 698 mmHg 93%

    Tomorrow, 24 January, Thursday

    Time Temperature Precipitation Wind Pressure Humidity
    00:00 +5°C° 0 mm 2 mps 698 mmHg 94%
    01:00 +5°C° 0 mm 2 mps 698 mmHg 94%
    02:00 +5°C° 0 mm 2 mps 698 mmHg 95%
    03:00 +4°C° 0 mm 2 mps 698 mmHg 95%
    04:00 +4°C° 0 mm 2 mps 698 mmHg 95%
    05:00 +4°C° 0 mm 2 mps 697 mmHg 96%
    06:00 +4°C° 0 mm 2 mps 697 mmHg 96%
    07:00 +5°C° 0 mm 2 mps 698 mmHg 94%
    08:00 +6°C° 0 mm 1 mps 698 mmHg 93%
    09:00 +7°C° 0 mm 1 mps 698 mmHg 91%
    10:00 +7°C° 0 mm 2 mps 698 mmHg 86%
    11:00 +8°C° 0 mm 2 mps 698 mmHg 82%
    12:00 +9°C° 0 mm 2 mps 699 mmHg 77%
    13:00 +9°C° 0 mm 2 mps 698 mmHg 76%
    14:00 +10°C° 0 mm 2 mps 698 mmHg 76%
    15:00 +10°C° 0 mm 2 mps 698 mmHg 75%
    16:00 +9°C° 0 mm 2 mps 698 mmHg 80%
    17:00 +9°C° 0 mm 1 mps 698 mmHg 85%
    18:00 +8°C° 0 mm 1 mps 698 mmHg 90%
    19:00 +8°C° 0 mm 1 mps 698 mmHg 90%
    20:00 +7°C° 0 mm 1 mps 699 mmHg 90%
    21:00 +7°C° 0 mm 1 mps 699 mmHg 91%
    22:00 +7°C° 0 mm 1 mps 699 mmHg 91%
    23:00 +7°C° 0 mm 1 mps 700 mmHg 92%

    Day after tomorrow, 25 January, Friday

    Time Temperature Precipitation Wind Pressure Humidity
    00:00 +6°C° 0 mm 1 mps 700 mmHg 92%
    01:00 +6°C° 0 mm 1 mps 700 mmHg 93%
    02:00 +5°C° 0 mm 0 mps 700 mmHg 94%
    03:00 +4°C° 0 mm 0 mps 700 mmHg 94%
    04:00 +5°C° 0 mm 1 mps 700 mmHg 94%
    05:00 +5°C° 0 mm 1 mps 700 mmHg 94%
    06:00 +5°C° 0 mm 1 mps 700 mmHg 94%
    07:00 +6°C° 0 mm 1 mps 701 mmHg 92%
    08:00 +6°C° 0 mm 2 mps 701 mmHg 89%
    09:00 +7°C° 0 mm 2 mps 702 mmHg 87%
    10:00 +9°C° 0 mm 2 mps 702 mmHg 76%
    11:00 +10°C° 0 mm 3 mps 702 mmHg 64%
    12:00 +12°C° 0 mm 4 mps 703 mmHg 53%
    13:00 +12°C° 0 mm 4 mps 702 mmHg 51%
    14:00 +13°C° 0 mm 4 mps 702 mmHg 49%
    15:00 +13°C° 0 mm 4 mps 702 mmHg 47%
    16:00 +12°C° 0 mm 3 mps 701 mmHg 53%
    17:00 +10°C° 0 mm 3 mps 701 mmHg 59%
    18:00 +8°C° 0 mm 2 mps 701 mmHg 64%
    19:00 +8°C° 0 mm 2 mps 702 mmHg 66%
    20:00 +7°C° 0 mm 2 mps 702 mmHg 68%
    21:00 +7°C° 0 mm 2 mps 702 mmHg 70%
    22:00 +6°C° 0 mm 2 mps 702 mmHg 72%
    23:00 +6°C° 0 mm 2 mps 702 mmHg 74%

    26 January, Saturday

    Time Temperature Precipitation Wind Pressure Humidity
    00:00 +6°C° 0 mm 1 mps 703 mmHg 75%
    01:00 +5°C° 0 mm 2 mps 702 mmHg 76%
    02:00 +5°C° 0 mm 2 mps 702 mmHg 77%
    03:00 +4°C° 0 mm 2 mps 702 mmHg 79%
    04:00 +4°C° 0 mm 2 mps 702 mmHg 79%
    05:00 +4°C° 0 mm 2 mps 702 mmHg 80%
    06:00 +4°C° 0 mm 2 mps 702 mmHg 80%
    07:00 +5°C° 0 mm 2 mps 702 mmHg 77%
    08:00 +6°C° 0 mm 2 mps 702 mmHg 74%
    09:00 +7°C° 0 mm 2 mps 703 mmHg 71%
    10:00 +8°C° 0 mm 2 mps 703 mmHg 64%
    11:00 +10°C° 0 mm 2 mps 703 mmHg 58%
    12:00 +13°C° 0 mm 2 mps 703 mmHg 51%
    13:00 +13°C° 0 mm 2 mps 703 mmHg 49%
    14:00 +14°C° 0 mm 2 mps 702 mmHg 46%
    15:00 +14°C° 0 mm 1 mps 701 mmHg 44%
    16:00 +12°C° 0 mm 1 mps 701 mmHg 50%
    17:00 +11°C° 0 mm 1 mps 701 mmHg 56%
    18:00 +9°C° 0 mm 1 mps 700 mmHg 63%
    19:00 +8°C° 0 mm 1 mps 700 mmHg 66%
    20:00 +8°C° 0 mm 1 mps 701 mmHg 70%
    21:00 +7°C° 0 mm 1 mps 701 mmHg 73%
    22:00 +7°C° 0 mm 1 mps 701 mmHg 75%
    23:00 +6°C° 0 mm 1 mps 701 mmHg 77%

    27 January, Sunday

    Time Temperature Precipitation Wind Pressure Humidity
    00:00 +6°C° 0 mm 1 mps 701 mmHg 79%
    01:00 +6°C° 0 mm 1 mps 700 mmHg 80%
    02:00 +5°C° 0 mm 1 mps 700 mmHg 81%
    03:00 +5°C° 0 mm 1 mps 699 mmHg 83%
    04:00 +5°C° 0 mm 1 mps 699 mmHg 84%
    05:00 +4°C° 0 mm 1 mps 699 mmHg 86%
    06:00 +4°C° 0 mm 1 mps 699 mmHg 87%
    07:00 +5°C° 0 mm 1 mps 699 mmHg 85%
    08:00 +6°C° 0 mm 1 mps 699 mmHg 83%
    09:00 +7°C° 0 mm 1 mps 700 mmHg 81%
    10:00 +8°C° 0 mm 1 mps 700 mmHg 76%
    11:00 +9°C° 0 mm 1 mps 700 mmHg 71%
    12:00 +10°C° 0 mm 1 mps 700 mmHg 66%
    13:00 +9°C° 0 mm 2 mps 699 mmHg 65%
    14:00 +9°C° 0 mm 2 mps 699 mmHg 64%
    15:00 +10°C° 0 mm 2 mps 698 mmHg 63%
    16:00 +9°C° 0 mm 2 mps 698 mmHg 68%
    17:00 +9°C° 0 mm 1 mps 698 mmHg 73%
    18:00 +8°C° 0 mm 1 mps 698 mmHg 77%
    19:00 +8°C° 0.1 mm 1 mps 698 mmHg 80%
    20:00 +7°C° 0.1 mm 1 mps 698 mmHg 83%
    21:00 +6°C° 0.1 mm 0 mps 699 mmHg 86%
    22:00 +6°C° 0.2 mm 1 mps 698 mmHg 86%
    23:00 +6°C° 0.2 mm 1 mps 698 mmHg 86%

    28 January, Monday

    Time Temperature Precipitation Wind Pressure Humidity
    00:00 +6°C° 0.2 mm 1 mps 698 mmHg 87%
    01:00 +5°C° 0.1 mm 1 mps 698 mmHg 87%
    02:00 +4°C° 0.1 mm 1 mps 698 mmHg 87%
    03:00 +3°C° 0.1 mm 1 mps 698 mmHg 88%
    04:00 +3°C° 0 mm 1 mps 698 mmHg 88%
    05:00 +3°C° 0 mm 1 mps 698 mmHg 88%
    06:00 +3°C° 0 mm 1 mps 698 mmHg 89%
    07:00 +4°C° 0 mm 1 mps 698 mmHg 85%
    08:00 +4°C° 0 mm 1 mps 699 mmHg 81%
    09:00 +4°C° 0 mm 1 mps 699 mmHg 78%
    10:00 +4°C° 0 mm 2 mps 699 mmHg 68%
    11:00 +4°C° 0 mm 3 mps 699 mmHg 58%
    12:00 +5°C° 0 mm 3 mps 699 mmHg 48%
    13:00 +6°C° 0 mm 4 mps 699 mmHg 46%
    14:00 +6°C° 0 mm 4 mps 699 mmHg 44%
    15:00 +6°C° 0 mm 5 mps 699 mmHg 42%
    16:00 +5°C° 0 mm 4 mps 699 mmHg 46%
    17:00 +4°C° 0 mm 3 mps 699 mmHg 50%
    18:00 +2°C° 0 mm 3 mps 699 mmHg 54%
    19:00 +3°C° 0 mm 2 mps 700 mmHg 57%
    20:00 +3°C° 0 mm 1 mps 700 mmHg 60%
    21:00 +2°C° 0 mm 1 mps 701 mmHg 63%
    22:00 +2°C° 0 mm 1 mps 701 mmHg 64%
    23:00 +1°C° 0 mm 1 mps 701 mmHg 66%
    Show more